TimeEDT,TemperatureF,Dew PointF,Humidity,Sea Level PressureIn,VisibilityMPH,Wind Direction,Wind SpeedMPH,Gust SpeedMPH,PrecipitationIn,Events,Conditions,WindDirDegrees,DateUTC
12:53 AM,66.0,62.1,87,30.17,10.0,Calm,Calm,-,N/A,,Clear,0,2013-09-06 04:53:00
1:53 AM,66.0,61.0,84,30.17,10.0,Calm,Calm,-,N/A,,Clear,0,2013-09-06 05:53:00
2:43 AM,62.6,60.8,94,30.21,9.0,Calm,Calm,-,N/A,,Partly Cloudy,0,2013-09-06 06:43:00
2:53 AM,64.9,61.0,87,30.17,10.0,Calm,Calm,-,N/A,,Clear,0,2013-09-06 06:53:00
3:53 AM,64.0,60.1,87,30.17,10.0,Calm,Calm,-,N/A,,Clear,0,2013-09-06 07:53:00
4:53 AM,63.0,60.1,90,30.16,10.0,Calm,Calm,-,N/A,,Clear,0,2013-09-06 08:53:00
5:53 AM,62.1,59.0,90,30.17,10.0,Calm,Calm,-,N/A,,Clear,0,2013-09-06 09:53:00
6:53 AM,61.0,57.9,90,30.19,10.0,Calm,Calm,-,N/A,,Clear,0,2013-09-06 10:53:00
7:53 AM,60.1,57.0,90,30.20,10.0,Calm,Calm,-,N/A,,Clear,0,2013-09-06 11:53:00
8:53 AM,63.0,57.9,84,30.20,10.0,Calm,Calm,-,N/A,,Clear,0,2013-09-06 12:53:00
9:53 AM,66.0,59.0,78,30.20,10.0,SE,3.5,-,N/A,,Clear,140,2013-09-06 13:53:00
10:53 AM,70.0,62.1,76,30.21,10.0,Calm,Calm,-,N/A,,Clear,0,2013-09-06 14:53:00
11:53 AM,73.0,63.0,71,30.20,10.0,Calm,Calm,-,N/A,,Clear,0,2013-09-06 15:53:00
12:40 PM,73.4,62.6,69,30.23,10.0,Calm,Calm,-,N/A,,Mostly Cloudy,0,2013-09-06 16:40:00
12:53 PM,73.9,61.0,64,30.19,10.0,Calm,Calm,-,N/A,,Partly Cloudy,0,2013-09-06 16:53:00
1:53 PM,78.1,61.0,56,30.17,10.0,NNE,3.5,-,N/A,,Clear,30,2013-09-06 17:53:00
2:53 PM,75.9,59.0,56,30.15,10.0,Calm,Calm,-,N/A,,Clear,0,2013-09-06 18:53:00
3:53 PM,80.1,59.0,48,30.13,10.0,Calm,Calm,-,N/A,,Clear,0,2013-09-06 19:53:00
4:53 PM,80.1,57.0,45,30.12,10.0,Variable,3.5,-,N/A,,Clear,0,2013-09-06 20:53:00
5:53 PM,79.0,57.9,48,30.11,10.0,Calm,Calm,-,N/A,,Clear,0,2013-09-06 21:53:00
6:53 PM,77.0,57.9,52,30.11,10.0,Calm,Calm,-,N/A,,Clear,0,2013-09-06 22:53:00
7:53 PM,71.1,57.9,63,30.12,10.0,Calm,Calm,-,N/A,,Clear,0,2013-09-06 23:53:00
8:53 PM,69.1,55.9,63,30.12,10.0,Calm,Calm,-,N/A,,Clear,0,2013-09-07 00:53:00
9:53 PM,68.0,54.0,61,30.12,10.0,Calm,Calm,-,N/A,,Clear,0,2013-09-07 01:53:00
10:53 PM,66.9,53.1,61,30.12,10.0,Calm,Calm,-,N/A,,Clear,0,2013-09-07 02:53:00
11:53 PM,64.9,53.1,65,30.12,10.0,Calm,Calm,-,N/A,,Clear,0,2013-09-07 03:53:00